Wind_Speed
27 24 20 17 9 5 1 3 4 4 8 11 11 13 15 20 24 30 39 33 35 31 32 30 28 33 32 29 22 23 20 16 20 22 21 22 17 10 7 8 10 12 13 13 16 19 24 30 37
30 27 18 15 12 7 1 5 7 5 4 9 9 10 12 16 19 26 34 32 42 37 33 22 17 23 19 37 29 22 23 18 19 18 14 16 13 5 8 9 8 12 12 11 19 18 26 32 36
31 28 21 12 10 9 6 2 7 7 7 7 10 8 8 10 19 20 26 27 37 50 43 34 34 22 11 20 34 32 24 19 14 14 7 10 9 3 7 8 8 10 14 13 16 19 24 32 35
28 31 26 14 11 10 10 7 1 6 10 11 12 12 12 12 12 20 21 22 37 42 44 43 34 44 28 24 14 29 25 13 13 11 7 3 2 3 5 7 8 10 13 13 16 15 21 27 31
28 28 25 19 13 11 10 9 2 6 4 12 17 17 16 17 16 17 17 22 31 37 39 39 31 37 41 41 24 17 24 24 22 18 4 4 3 3 5 9 12 12 10 11 12 10 15 18 26
29 26 24 18 13 9 11 12 10 6 5 3 3 8 13 16 18 20 21 21 28 28 28 26 28 33 43 42 20 18 15 20 14 18 10 6 2 3 1 10 11 10 9 11 11 10 10 17 20
28 27 23 18 11 6 6 10 10 8 5 3 9 7 6 6 8 14 22 26 29 28 30 32 31 32 32 30 22 16 21 18 14 11 11 9 6 4 5 9 11 11 12 14 14 10 8 15 18
26 23 20 17 13 6 2 3 7 9 8 3 8 13 12 11 8 9 13 21 27 25 25 28 29 26 27 28 27 26 27 20 14 13 12 12 9 6 11 13 8 10 13 13 14 14 11 12 15
29 22 17 14 14 9 4 3 4 7 8 4 1 11 14 13 10 9 10 13 23 21 20 22 19 20 22 21 25 20 19 20 17 14 12 12 13 10 14 13 6 10 11 12 12 12 15 10 12
24 19 15 11 12 10 6 5 6 8 4 4 2 4 8 9 8 9 8 10 21 22 19 19 19 18 20 23 24 22 22 19 18 16 13 17 16 14 14 13 7 4 4 7 10 10 12 13 11
23 16 12 11 11 10 5 3 5 7 7 6 4 5 5 7 7 6 6 7 20 23 21 21 20 20 20 21 24 23 21 19 18 17 14 20 18 16 11 10 10 5 2 3 4 6 7 8 11
21 15 9 11 10 9 5 2 5 6 7 10 10 7 7 7 6 4 5 5 11 24 22 21 22 22 21 22 21 20 20 16 16 18 17 16 17 12 11 8 9 8 4 2 2 3 10 7 7
18 14 12 10 9 8 5 2 5 4 4 10 12 7 4 0 2 6 7 8 7 23 24 23 24 25 22 26 23 18 17 16 18 19 19 10 15 11 9 7 6 8 7 4 5 1 6 7 6
17 15 14 12 9 8 8 4 7 8 5 5 8 7 4 1 5 5 7 11 11 19 26 25 24 27 27 27 24 19 17 18 18 18 19 15 14 13 11 11 10 8 8 8 6 5 8 9 7
16 15 19 21 11 8 10 10 9 13 9 2 4 6 7 5 4 9 8 9 11 19 28 27 26 27 28 24 25 23 20 16 17 16 19 20 17 16 13 12 13 13 11 12 11 11 8 10 12
13 18 17 35 19 2 6 9 11 16 15 8 2 3 5 8 7 6 7 7 9 15 30 30 29 26 27 29 27 25 21 16 19 20 20 19 19 19 19 18 18 18 15 15 17 16 14 12 14
6 12 21 26 18 11 8 14 15 14 14 10 8 6 6 8 10 9 7 7 7 13 25 33 31 28 27 28 27 26 25 19 19 21 18 18 20 22 21 23 24 24 23 20 17 17 16 15 15
12 12 22 19 19 15 12 11 15 14 14 15 12 11 11 8 7 9 9 8 7 8 21 31 32 31 29 28 27 27 26 23 21 19 20 22 23 23 24 24 24 25 26 24 21 19 18 18 18
19 17 20 20 19 15 13 11 12 17 18 14 16 16 14 14 7 6 7 8 7 3 17 27 32 32 31 28 26 28 28 27 24 24 24 23 23 23 21 20 22 22 23 23 23 21 19 20 19
23 21 19 21 21 18 15 13 18 18 16 14 16 16 17 16 11 2 7 6 7 2 9 18 27 31 32 30 28 29 28 28 26 24 23 22 23 22 22 23 20 20 22 22 23 22 20 20 16
26 25 21 26 24 21 18 18 19 23 24 15 17 16 18 19 17 8 1 4 2 3 7 14 18 21 26 29 29 28 27 27 26 25 24 23 23 25 23 22 21 21 22 23 23 23 20 16 15
29 28 25 30 27 22 22 21 24 23 23 21 16 17 19 20 21 18 9 4 0 5 7 10 15 18 19 22 27 27 27 24 23 21 19 17 16 18 19 19 17 19 21 20 19 19 19 14 13
32 28 28 28 28 27 25 27 26 25 22 21 20 19 22 23 21 24 18 10 4 3 9 11 12 14 17 19 22 24 23 18 16 12 12 13 14 15 22 23 22 20 20 21 19 21 20 19 16
31 29 27 26 29 31 29 30 30 27 21 20 18 17 17 16 21 24 27 17 13 7 8 10 12 15 15 15 16 18 20 19 13 11 7 8 3 5 16 24 24 24 23 25 24 20 20 19 17
28 25 25 28 30 32 33 34 33 27 24 22 21 19 17 16 20 22 31 29 20 16 11 8 7 11 16 16 17 19 20 17 10 6 8 6 8 11 6 7 18 24 23 21 23 24 19 20 18
26 25 29 28 28 28 31 41 37 28 28 27 24 20 17 17 18 19 28 32 28 25 20 13 10 8 12 19 19 19 19 16 12 9 17 17 17 13 7 4 5 7 13 19 20 22 22 19 19
25 27 26 26 28 29 41 38 41 31 31 30 26 22 18 17 19 19 26 28 31 29 27 25 16 13 13 14 20 25 24 20 20 17 22 13 17 13 7 1 8 11 9 4 9 15 20 18 12
29 27 27 27 28 30 34 36 35 34 34 32 28 23 21 19 18 19 21 26 30 31 32 28 21 16 14 10 15 22 25 26 25 19 19 16 15 12 8 4 1 5 10 8 7 4 6 10 12
33 31 28 28 28 31 30 36 26 34 35 33 30 27 24 22 21 21 20 19 25 30 33 31 28 24 20 16 12 11 15 19 19 19 23 21 16 11 11 11 6 1 2 5 6 8 7 9 12
33 31 28 28 30 31 31 25 24 27 29 29 25 23 20 20 21 20 21 24 24 28 31 32 32 31 28 23 16 13 12 13 11 13 20 23 20 12 13 15 16 14 8 6 7 9 9 12 12
Wind_Direction
8 8 8 2 348 341 136 162 161 152 176 187 193 188 195 207 211 213 205 192 199 207 202 208 218 229 237 230 244 265 259 246 311 306 337 338 352 5 46 24 38 44 46 35 41 42 45 46 48
4 4 7 9 359 348 327 175 181 186 182 162 166 174 195 203 197 209 221 222 189 201 192 193 178 205 227 232 244 240 278 304 315 335 340 343 331 5 46 43 45 48 63 55 50 54 49 54 53
4 0 11 30 17 20 46 105 183 183 208 198 180 184 171 187 211 202 214 219 210 210 208 207 205 201 212 226 229 234 271 293 296 325 329 352 314 42 39 47 60 74 71 59 57 60 61 60 56
3 3 5 9 55 54 49 57 173 192 206 229 220 221 215 194 183 199 203 218 210 218 221 226 218 212 212 219 271 247 274 297 322 307 283 307 325 73 34 62 71 91 72 45 56 63 59 62 60
360 3 1 9 35 68 71 55 111 145 168 226 235 232 233 229 209 197 209 213 211 219 229 248 251 234 237 267 253 260 263 273 281 265 247 203 56 311 45 102 99 86 59 54 56 67 56 56 65
357 356 4 5 12 47 63 62 53 70 123 122 178 221 231 236 229 223 219 210 205 217 225 237 239 246 244 252 259 246 258 265 244 218 196 201 178 254 39 121 98 76 71 63 61 71 69 53 66
352 358 2 4 9 27 62 58 38 39 34 209 192 184 189 190 208 223 228 230 228 223 223 227 230 235 244 246 251 233 231 232 200 181 191 201 234 203 142 135 107 73 83 66 58 69 65 64 65
354 352 359 0 359 20 267 101 49 9 353 5 215 191 193 204 224 243 244 234 225 221 222 228 226 227 231 230 222 225 225 233 230 194 192 205 196 183 145 137 107 74 68 57 63 65 58 61 63
355 345 358 356 354 1 356 280 323 344 335 327 82 203 195 206 231 268 266 238 212 207 214 214 213 203 214 214 208 205 218 222 195 204 199 198 195 183 165 157 127 77 63 67 62 61 60 56 44
341 345 350 354 351 0 15 339 319 317 301 328 302 217 218 227 250 284 287 286 204 197 201 204 209 205 205 208 208 195 202 188 197 198 195 197 192 186 180 185 176 114 56 66 81 54 62 58 42
336 345 347 350 353 3 15 5 325 334 332 357 326 281 260 258 250 267 284 301 209 197 201 201 206 206 203 201 198 190 188 193 188 188 190 189 188 188 190 202 215 191 310 150 89 59 10 34 44
335 338 342 344 356 359 14 273 281 349 25 9 4 343 309 291 257 235 248 256 232 199 201 209 204 205 207 196 189 189 183 186 188 188 187 188 201 209 208 208 200 211 227 183 190 57 21 351 25
333 330 332 333 347 359 22 332 264 322 358 34 10 7 1 72 334 294 239 220 217 211 202 206 204 208 202 191 197 188 187 194 197 191 190 204 205 207 204 214 228 231 206 197 172 225 3 357 347
329 328 331 336 352 12 14 319 271 274 302 34 31 22 47 351 280 269 256 228 215 206 207 202 205 204 213 200 200 196 197 199 194 194 201 205 203 211 229 236 235 220 223 226 207 287 308 319 335
324 330 344 334 345 32 32 322 312 264 256 281 34 1 11 9 326 277 278 265 236 205 204 203 201 206 213 212 204 201 203 205 200 204 212 215 222 223 235 239 239 240 239 232 242 269 306 293 309
323 1 47 287 310 328 197 204 266 257 249 250 251 297 334 359 352 302 289 274 255 220 198 202 197 202 207 214 212 206 209 213 211 210 213 222 231 241 244 244 241 246 246 244 268 269 291 286 295
335 102 277 268 298 289 222 223 234 245 260 239 248 267 279 319 350 357 330 316 285 219 204 198 199 201 206 209 211 211 215 221 222 220 219 227 236 244 251 253 251 252 252 264 268 268 285 285 287
284 222 258 285 293 290 274 237 214 231 252 252 244 245 269 292 317 10 348 340 315 221 200 197 200 202 206 209 211 213 219 219 216 218 231 240 244 255 254 258 258 255 252 257 264 270 272 281 287
277 280 287 285 286 285 270 253 239 243 252 262 262 247 252 270 292 357 32 1 333 237 196 197 202 203 205 207 210 214 219 221 224 231 241 249 248 248 257 258 252 253 256 260 262 267 269 275 284
276 277 278 278 279 279 272 254 239 246 250 239 235 249 238 248 255 297 48 32 349 286 189 200 206 209 209 209 212 218 224 229 235 241 253 258 255 258 258 257 261 262 261 260 263 263 268 274 279
271 275 274 273 270 274 272 264 249 233 251 238 234 251 239 235 245 214 82 49 2 264 186 197 208 215 220 219 219 223 230 236 243 253 256 256 260 260 260 256 257 260 260 261 266 266 262 267 270
268 273 269 263 265 268 267 262 256 247 237 246 235 241 239 232 227 230 221 221 79 216 196 188 200 209 213 220 222 225 231 235 241 247 250 250 250 253 250 250 253 257 262 261 261 260 253 252 265
269 272 262 264 264 260 260 261 260 257 257 248 248 240 238 241 243 235 222 214 219 225 196 184 193 204 209 212 216 217 221 223 219 215 235 260 271 279 278 264 258 259 264 261 262 261 256 249 265
268 263 263 260 255 253 255 256 258 259 259 260 256 254 253 239 241 234 225 210 214 191 176 176 188 195 200 202 201 203 201 195 196 221 285 297 286 300 299 265 258 254 254 261 260 265 260 247 261
260 261 259 255 251 247 250 254 256 257 258 257 258 256 250 243 232 225 221 220 218 195 193 179 190 218 208 200 201 204 202 201 204 234 213 221 248 242 288 274 261 258 256 253 257 257 259 254 267
255 252 250 251 251 248 261 250 256 253 257 256 255 255 248 235 237 223 220 223 219 211 207 209 243 249 226 213 206 206 204 216 225 213 194 228 249 251 259 301 332 277 259 250 250 258 252 258 268
248 248 250 251 248 239 234 248 252 251 254 258 257 256 257 250 241 229 219 219 221 219 217 223 226 229 226 230 223 217 219 219 210 227 218 229 249 242 261 97 46 25 4 338 260 254 254 254 255
247 249 244 244 246 247 247 247 251 253 253 255 259 263 264 256 245 238 223 226 226 229 229 228 221 225 203 201 217 216 218 211 221 199 191 223 243 249 238 263 96 42 27 1 329 305 251 223 205
247 242 242 240 241 246 249 251 255 257 261 263 269 272 272 266 256 243 238 227 224 226 227 228 221 222 209 175 185 186 203 217 236 220 217 219 242 251 269 276 250 156 28 339 329 308 274 204 198
240 235 234 235 239 243 252 254 254 258 262 267 269 270 270 264 255 247 238 230 223 226 224 228 229 231 222 209 203 205 208 221 224 254 235 239 232 247 274 269 264 257 234 231 271 276 251 222 219
Height
10985 10983 10978 10974 10973 10969 10967 10967 10968 10968 10969 10969 10969 10971 10972 10974 10977 10981 10983 10988 10990 10993 10995 10997 10998 11000 11002 11003 11002 11004 11005 11006 11002 11005 11004 11004 11005 11004 11002 11003 11001 11000 10999 10997 10996 10992 10989 10984 10979
10983 10981 10980 10974 10971 10970 10967 10966 10967 10968 10969 10969 10969 10970 10971 10972 10974 10976 10978 10980 10985 10990 10993 10995 10994 10997 10998 10999 11002 11001 11000 11001 11002 11005 11005 11003 11006 11007 11004 11004 11003 11003 11001 11000 10997 10994 10992 10987 10982
10984 10982 10979 10978 10972 10969 10967 10966 10965 10967 10969 10970 10970 10970 10971 10972 10973 10974 10976 10978 10979 10984 10988 10992 10992 10996 10996 10997 10998 11000 11000 11002 11001 11004 11004 11004 11008 11007 11006 11005 11005 11005 11003 11000 10999 10998 10996 10992 10987
10988 10980 10978 10977 10974 10969 10967 10967 10966 10966 10967 10969 10970 10970 10971 10972 10973 10974 10974 10975 10978 10977 10980 10984 10988 10990 10991 10995 10995 10997 10999 10999 11001 11003 11005 11005 11009 11008 11008 11006 11006 11005 11003 11001 11000 11000 10998 10995 10991
10987 10982 10978 10975 10973 10970 10968 10968 10967 10966 10966 10967 10968 10969 10970 10971 10973 10974 10975 10974 10974 10978 10980 10981 10982 10985 10986 10985 10995 10996 10998 11001 11004 11006 11005 11007 11008 11010 11009 11008 11007 11006 11005 11002 11002 11002 11000 10997 10995
10988 10983 10979 10975 10972 10971 10969 10969 10968 10967 10966 10966 10966 10967 10969 10970 10972 10973 10975 10975 10976 10977 10977 10978 10980 10983 10986 10989 10993 10995 10996 11001 11001 11004 11005 11008 11008 11009 11010 11011 11009 11008 11006 11004 11004 11003 11002 10999 10998
10987 10982 10979 10976 10974 10972 10971 10970 10970 10969 10968 10966 10965 10966 10968 10969 10971 10972 10973 10974 10975 10976 10977 10979 10981 10983 10984 10986 10989 10994 11000 11001 11001 11003 11006 11008 11009 11011 11011 11012 11011 11010 11008 11007 11006 11005 11004 11002 10999
10987 10983 10979 10976 10973 10972 10971 10970 10969 10969 10968 10966 10964 10965 10966 10968 10969 10970 10970 10970 10971 10973 10975 10976 10979 10981 10983 10985 10990 10993 10998 11001 11003 11005 11007 11008 11009 11010 11012 11012 11012 11011 11009 11009 11008 11006 11004 11003 11002
10989 10982 10980 10976 10973 10972 10971 10970 10969 10968 10968 10966 10965 10964 10964 10965 10966 10967 10968 10966 10967 10970 10973 10974 10976 10979 10982 10984 10989 10991 10995 10999 11002 11005 11007 11008 11010 11011 11012 11013 11013 11012 11011 11010 11009 11009 11007 11005 11003
10984 10981 10978 10976 10973 10971 10970 10970 10969 10967 10967 10966 10964 10964 10963 10963 10963 10963 10964 10965 10965 10968 10971 10973 10976 10979 10982 10985 10987 10990 10994 10997 11001 11004 11006 11008 11009 11011 11011 11012 11012 11012 11012 11012 11011 11011 11010 11008 11006
10980 10979 10977 10975 10973 10972 10971 10970 10969 10967 10965 10965 10964 10963 10962 10961 10960 10960 10962 10963 10965 10967 10970 10972 10976 10980 10982 10984 10986 10988 10993 10997 11000 11002 11004 11007 11009 11010 11010 11011 11012 11012 11012 11012 11012 11013 11011 11008 11007
10978 10977 10976 10974 10973 10972 10972 10972 10971 10969 10966 10964 10962 10961 10960 10959 10959 10958 10959 10961 10963 10966 10968 10972 10975 10979 10982 10984 10986 10988 10992 10997 10998 11000 11003 11006 11008 11010 11010 11010 11010 11011 11011 11011 11011 11012 11012 11010 11009
10976 10975 10974 10974 10974 10975 10975 10975 10974 10970 10966 10965 10963 10961 10959 10959 10959 10958 10958 10958 10960 10964 10967 10971 10974 10977 10980 10982 10985 10988 10991 10995 10998 11001 11003 11005 11007 11009 11010 11010 11010 11010 11011 11011 11012 11011 11010 11010 11009
10975 10974 10974 10975 10977 10978 10973 10970 10972 10972 10968 10966 10965 10963 10961 10960 10959 10957 10957 10956 10956 10959 10964 10969 10973 10976 10980 10981 10985 10989 10992 10994 10997 11000 11002 11004 11005 11007 11008 11008 11009 11009 11010 11011 11011 11011 11010 11009 11008
10975 10976 10977 10979 10981 10979 10970 10966 10965 10972 10970 10967 10965 10964 10963 10961 10959 10957 10956 10955 10955 10956 10960 10966 10970 10974 10978 10982 10984 10989 10992 10995 10997 10999 11001 11003 11004 11005 11006 11007 11007 11008 11008 11009 11009 11009 11009 11009 11008
10974 10976 10980 10970 10981 10980 10971 10946 10964 10970 10969 10967 10965 10964 10962 10961 10959 10957 10956 10954 10953 10954 10957 10963 10967 10972 10976 10980 10984 10989 10992 10994 10996 10997 10999 11000 11001 11003 11004 11005 11005 11006 11006 11007 11007 11007 11008 11007 11006
10974 10972 10973 10978 10973 10974 10975 10973 10970 10969 10966 10965 10964 10964 10963 10961 10959 10956 10955 10954 10953 10952 10955 10960 10965 10970 10974 10978 10983 10987 10991 10993 10994 10996 10997 10999 10999 11001 11000 11001 11002 11003 11004 11004 11003 11003 11003 11004 11004
10968 10973 10972 10968 10966 10965 10965 10966 10967 10965 10964 10962 10963 10963 10963 10962 10960 10958 10954 10953 10952 10951 10953 10958 10963 10968 10972 10976 10981 10985 10987 10989 10992 10995 10995 10996 10998 10998 10998 10998 10998 10999 11000 11001 11001 11000 11000 11000 11000
10962 10964 10986 10963 10961 10959 10960 10959 10960 10961 10961 10961 10961 10962 10961 10961 10961 10958 10955 10953 10953 10952 10953 10957 10961 10966 10970 10973 10978 10981 10984 10987 10990 10991 10993 10994 10995 10993 10995 10995 10995 10995 10996 10998 10998 10997 10997 10997 10997
10956 10957 10959 10957 10956 10955 10955 10955 10956 10957 10957 10958 10959 10959 10959 10959 10960 10959 10956 10954 10954 10954 10954 10958 10961 10964 10968 10971 10975 10979 10983 10986 10989 10991 10992 10993 10993 10993 10993 10993 10992 10993 10994 10994 10993 10993 10993 10993 10993
10949 10951 10954 10952 10951 10951 10951 10950 10951 10953 10953 10956 10956 10956 10957 10957 10958 10958 10957 10956 10956 10955 10955 10957 10961 10965 10968 10971 10974 10978 10982 10985 10988 10989 10988 10988 10988 10989 10989 10988 10988 10989 10990 10989 10989 10989 10989 10989 10990
10944 10945 10946 10945 10945 10947 10946 10945 10945 10946 10948 10951 10953 10953 10953 10954 10955 10956 10957 10956 10956 10956 10955 10957 10959 10962 10965 10968 10971 10974 10977 10980 10982 10984 10984 10983 10983 10983 10983 10983 10983 10984 10985 10985 10985 10985 10986 10986 10987
10937 10939 10938 10939 10940 10941 10941 10939 10940 10942 10944 10947 10948 10950 10950 10950 10951 10953 10955 10956 10955 10956 10957 10957 10958 10960 10961 10963 10966 10969 10972 10976 10979 10980 10980 10981 10981 10981 10980 10979 10978 10979 10980 10981 10981 10982 10982 10983 10984
10930 10931 10932 10933 10933 10934 10935 10933 10934 10936 10940 10942 10943 10945 10944 10946 10946 10948 10951 10954 10955 10956 10957 10957 10957 10957 10958 10961 10965 10968 10971 10973 10974 10976 10978 10979 10979 10979 10976 10972 10972 10973 10973 10975 10977 10978 10979 10980 10981
10923 10925 10926 10925 10927 10928 10929 10928 10928 10933 10935 10937 10938 10939 10940 10941 10942 10943 10946 10949 10952 10954 10956 10956 10955 10956 10957 10959 10962 10965 10968 10970 10972 10975 10976 10978 10976 10973 10972 10967 10967 10968 10968 10969 10971 10973 10975 10977 10979
10916 10918 10917 10918 10921 10924 10926 10920 10923 10929 10928 10930 10932 10934 10935 10937 10938 10940 10941 10944 10948 10951 10952 10952 10954 10955 10956 10956 10958 10962 10965 10968 10969 10972 10975 10974 10971 10971 10968 10966 10964 10963 10962 10963 10965 10968 10971 10972 10974
10910 10911 10912 10914 10914 10916 10915 10915 10915 10923 10924 10924 10926 10929 10931 10933 10933 10935 10937 10939 10942 10946 10947 10948 10950 10951 10952 10955 10955 10957 10960 10964 10965 10968 10969 10969 10970 10971 10967 10965 10962 10962 10961 10960 10961 10963 10966 10967 10970
10902 10905 10906 10907 10908 10908 10907 10909 10911 10916 10917 10918 10921 10925 10927 10927 10929 10931 10933 10936 10939 10942 10944 10944 10946 10948 10950 10951 10952 10953 10955 10958 10961 10964 10964 10966 10967 10967 10968 10966 10962 10961 10962 10962 10961 10960 10961 10962 10964
10896 10897 10900 10902 10903 10902 10903 10901 10911 10909 10910 10912 10916 10919 10920 10922 10923 10924 10927 10930 10932 10933 10936 10939 10941 10944 10947 10949 10950 10952 10954 10956 10958 10960 10960 10962 10963 10964 10964 10965 10963 10960 10961 10962 10962 10961 10961 10961 10963
10889 10891 10894 10896 10897 10897 10897 10901 10904 10904 10905 10907 10911 10912 10913 10914 10915 10918 10920 10922 10923 10925 10930 10934 10937 10940 10943 10947 10947 10949 10951 10953 10954 10956 10956 10957 10959 10960 10961 10961 10962 10960 10958 10959 10961 10962 10962 10962 10963